Weather in Kadino

Russia / Smolensk Oblast     54°18′07″N   31°28′07″E
temp.,
°C
wind,
m/s
gust,
m/s
humid.,
%
clouds,
%
prec.,
mm/h
press.,
hPa
HPBL,
m
9 may, sun
sun900:00+3wnw6137792 0.0 1013432
03:00+1nw613825 0.0 1015443
06:00+1nw512845 0.0 1017392
09:00+6nw610635 0.0 10191087
12:00+9nw794747 0.0 10201941
15:00+11nw684388 0.0 10212382
18:00+11nw46525 0.0 10212106
21:00+5wnw35735 0.0 102460
10 may, mon
mon1000:00+3nw22705 0.0 102615
03:00+3wnw116526 0.0 102710
06:00+3ssw226510 0.0 102811
09:00+9s23555 0.0 1028354
12:00+13s33455 0.0 10281176
15:00+14ssw22424 0.0 10271335
18:00+14se11455 0.0 10271146
21:00+9e22600 0.0 102810
11 may, tue
tue1100:00+7e22673 0.0 102812
03:00+6e227432 0.0 102820
06:00+5ene35765 0.0 102875
09:00+11ene47600 0.0 1027449
12:00+15ene57482 0.0 1026796
15:00+17ene56550 0.0 1024880
18:00+18ene586685 0.0 1023744
21:00+13ene4118596 0.0 1023202
12 may, wed
wed1200:00+11e39954 0.0 1024177
03:00+9se499263 0.0 1025311
06:00+6ese38945 0.0 1025218
09:00+11se45705 0.0 1025586
12:00+14e4559100 0.0 10231156
15:00+10ne4683100 0.3 1021367
18:00+8wsw2395100 1.4 1016231
21:00+8s3697100 4.6 1014292
13 may, thu
thu1300:00+8sse61195100 1.1 1015659
03:00+7ese51195100 1.3 1015446
06:00+7ese51097100 0.5 1015620
09:00+8se6109199 0.8 1014730
12:00+11se7979100 0.5 1015984
15:00+13sse686577 0.6 10151375
18:00+12sse597592 0.1 10151008
21:00+9ese478647 0.1 101598